{"data":{"norad_id":67295,"epoch":"2026-05-25T03:30:36.128736Z","epoch_age_seconds":62310,"freshness":"FRESH","line1":"1 67295U 25313AZ  26145.14625149  .00007394  00000+0  30943-3 0  9997","line2":"2 67295  97.3944 220.4268 0011801  72.6114 287.6412 15.23797774 22469","mean_motion":15.23797774,"eccentricity":0.0011801,"inclination_deg":97.3944,"raan_deg":220.4268,"arg_perigee_deg":72.6114,"mean_anomaly_deg":287.6412,"bstar":0.00030943,"rev_number":2246,"period_min":94.5007286774,"perigee_km":486.28758206801,"apogee_km":502.50813884566,"semimajor_km":6872.5348604568,"source":"CELESTRAK","updated_at":"2026-05-25T13:38:06.883481Z"}}